Location: Bartlett
(35.2045°N, 89.8740°W)
Time: 11:26:48
(UTC+00:00)

Transit 4A - All Passes

Search period start: 15 December 2025 00:00
Search period end: 25 December 2025 00:00
Orbit: 869 x 972 km, 66.8° (Epoch: 14 December)

Date Brightness Start Highest point End Pass type
(mag) Time Alt. Az. Time Alt. Az. Time Alt. Az.
15 Dec - 00:12:22 10° SSW 00:18:10 88° ESE 00:24:01 10° NNE visible
15 Dec - 02:02:13 10° WNW 02:05:14 14° NW 02:08:17 10° NNW visible
15 Dec - 09:17:52 10° NNW 09:23:48 53° ENE 09:29:51 10° SE visible
15 Dec - 11:05:12 10° WNW 11:09:41 22° WSW 11:14:14 10° SSW visible
15 Dec - 22:37:50 10° SE 22:41:16 16° ESE 22:44:42 10° ENE daylight
16 Dec - 00:21:13 10° SW 00:26:57 61° WNW 00:32:43 10° NNE visible
16 Dec - 07:42:40 10° NNE 07:45:23 13° NE 07:48:07 10° ENE night (unlit)
16 Dec - 09:26:31 10° NNW 09:32:37 79° ENE 09:38:50 10° SSE visible
16 Dec - 11:15:23 10° WNW 11:18:12 13° WSW 11:21:02 10° SW visible
16 Dec - 22:45:06 10° SSE 22:49:47 26° ESE 22:54:29 10° NE daylight
17 Dec - 00:30:23 10° SW 00:35:48 40° WNW 00:41:16 10° NNE visible
17 Dec - 07:50:21 10° N 07:54:32 19° NE 07:58:46 10° E night (unlit)
17 Dec - 09:35:19 10° NNW 09:41:21 70° WSW 09:47:32 10° SSE visible
17 Dec - 22:53:01 10° S 22:58:23 40° ESE 23:03:46 10° NE daylight
18 Dec - 00:39:52 10° WSW 00:44:45 27° NW 00:49:40 10° N visible
18 Dec - 07:58:30 10° N 08:03:35 27° NE 08:08:44 10° ESE night (unlit)
18 Dec - 09:44:16 10° NW 09:50:03 46° WSW 09:55:56 10° S visible
18 Dec - 23:01:19 10° SSW 23:07:01 64° ESE 23:12:47 10° NNE daylight
19 Dec - 00:49:46 10° W 00:53:47 19° NW 00:57:50 10° N visible
19 Dec - 08:06:53 10° NNW 08:12:32 39° ENE 08:18:18 10° SE night (unlit)
19 Dec - 09:53:28 10° NW 09:58:40 30° WSW 10:03:58 10° SSW visible
19 Dec - 21:28:58 10° ESE 21:30:18 11° ESE 21:31:39 10° E daylight
19 Dec - 23:09:57 10° SSW 23:15:45 84° WNW 23:21:36 10° NNE visible
20 Dec - 01:00:20 10° WNW 01:02:55 13° NW 01:05:32 10° NNW visible
20 Dec - 08:15:25 10° NNW 08:21:25 58° ENE 08:27:32 10° SE night (unlit)
20 Dec - 10:03:02 10° WNW 10:07:14 19° WSW 10:11:28 10° SSW night (unlit)
20 Dec - 21:34:57 10° SSE 21:38:47 18° ESE 21:42:37 10° ENE daylight
20 Dec - 23:18:52 10° SW 23:24:32 55° WNW 23:30:16 10° NNE visible
21 Dec - 06:39:53 10° NNE 06:43:05 14° NE 06:46:18 10° ENE night (unlit)
21 Dec - 08:24:06 10° NNW 08:30:12 87° ENE 08:36:28 10° SSE night (unlit)
21 Dec - 10:13:39 10° W 10:15:43 12° WSW 10:17:49 10° WSW night (unlit)
21 Dec - 21:42:25 10° SSE 21:47:19 29° ESE 21:52:14 10° NE daylight
21 Dec - 23:28:06 10° WSW 23:33:25 37° WNW 23:38:47 10° N visible
22 Dec - 06:47:44 10° N 06:52:13 21° NE 06:56:44 10° E night (unlit)
22 Dec - 08:32:55 10° NNW 08:38:56 63° WSW 08:45:06 10° SSE night (unlit)
22 Dec - 21:50:26 10° S 21:55:55 45° ESE 22:01:26 10° NE daylight
22 Dec - 23:37:41 10° WSW 23:42:22 25° NW 23:47:08 10° N visible
23 Dec - 06:55:58 10° N 07:01:14 30° NE 07:06:35 10° ESE night (unlit)
23 Dec - 08:41:56 10° NW 08:47:36 41° WSW 08:53:24 10° S night (unlit)
23 Dec - 21:58:50 10° SSW 22:04:35 71° ESE 22:10:23 10° NNE daylight
23 Dec - 23:47:42 10° W 23:51:27 17° NW 23:55:13 10° N visible
24 Dec - 07:04:23 10° NNW 07:10:10 43° ENE 07:16:03 10° SE night (unlit)
24 Dec - 08:51:11 10° NW 08:56:13 27° WSW 09:01:19 10° SSW night (unlit)
24 Dec - 20:25:30 10° SE 20:27:48 12° ESE 20:30:07 10° ENE daylight
24 Dec - 22:07:32 10° SSW 22:13:19 76° WNW 22:19:10 10° NNE daylight
